| time (UTC) | temp F | wind direction | speed MPH | gust MPH | rain 1hr in | rain 24hr in | rain mn in | humidity % | barometer mb |
| 20260905150524 | 64 | 0 | 0.0 | 3.0 | 0.00 | 0.00 | 0.00 | 89 | 1011.4 |
| 20260905150051 | 64 | 0 | 0.0 | 3.0 | 0.00 | 0.00 | 0.00 | 88 | 1011.4 |
| 20260905145526 | 64 | 0 | 0.0 | 3.0 | 0.00 | 0.00 | 0.00 | 88 | 1011.4 |
| 20260905145024 | 65 | 268 | 0.0 | 2.0 | 0.00 | 0.00 | 0.00 | 87 | 1011.4 |
| 20260905144543 | 65 | 0 | 0.0 | 5.0 | 0.00 | 0.00 | 0.00 | 85 | 1011.3 |
| 20260905144027 | 66 | 0 | 0.0 | 5.0 | 0.00 | 0.00 | 0.00 | 84 | 1011.3 |
| 20260905143527 | 66 | 0 | 0.0 | 3.0 | 0.00 | 0.00 | 0.00 | 82 | 1011.2 |
| 20260905143049 | 66 | 359 | 0.0 | 3.0 | 0.00 | 0.00 | 0.00 | 82 | 1011.1 |
| 20260905142524 | 66 | 0 | 0.0 | 4.0 | 0.00 | 0.00 | 0.00 | 81 | 1011.0 |
| 20260905142025 | 66 | 0 | 0.0 | 4.0 | 0.00 | 0.00 | 0.00 | 82 | 1010.8 |
| 20260905141546 | 66 | 0 | 0.0 | 1.0 | 0.00 | 0.00 | 0.00 | 83 | 1010.9 |
| 20260905141027 | 65 | 0 | 0.0 | 3.0 | 0.00 | 0.00 | 0.00 | 83 | 1010.8 |
| 20260905140525 | 65 | 0 | 0.0 | 3.0 | 0.00 | 0.00 | 0.00 | 83 | 1010.9 |
| 20260905140049 | 65 | 0 | 0.0 | 1.0 | 0.00 | 0.00 | 0.00 | 85 | 1010.8 |
| 20260905135526 | 65 | 0 | 0.0 | 6.0 | 0.00 | 0.00 | 0.00 | 85 | 1010.8 |
| 20260905135025 | 65 | 0 | 0.0 | 6.0 | 0.00 | 0.00 | 0.00 | 85 | 1010.8 |
| 20260905134553 | 64 | 0 | 0.0 | 4.0 | 0.00 | 0.00 | 0.00 | 87 | 1010.7 |
| 20260905134024 | 64 | 0 | 0.0 | 4.0 | 0.00 | 0.00 | 0.00 | 87 | 1010.7 |
| 20260905133525 | 64 | 0 | 0.0 | 2.0 | 0.00 | 0.00 | 0.00 | 88 | 1010.6 |
| 20260905133047 | 64 | 0 | 0.0 | 1.0 | 0.00 | 0.00 | 0.00 | 89 | 1010.7 |
| 20260905132525 | 63 | 0 | 0.0 | 0.0 | 0.00 | 0.00 | 0.00 | 89 | 1010.5 |
| 20260905132027 | 63 | 0 | 0.0 | 1.0 | 0.00 | 0.00 | 0.00 | 90 | 1010.5 |
| 20260905131545 | 63 | 0 | 0.0 | 1.0 | 0.00 | 0.00 | 0.00 | 91 | 1010.5 |
| 20260905131026 | 63 | 0 | 0.0 | 0.0 | 0.00 | 0.00 | 0.00 | 90 | 1010.4 |
| 20260905130524 | 63 | 0 | 0.0 | 0.0 | 0.00 | 0.00 | 0.00 | 90 | 1010.5 |
| 20260905130044 | 62 | 0 | 0.0 | 0.0 | 0.00 | 0.00 | 0.00 | 90 | 1010.5 |
| 20260905125526 | 63 | 0 | 0.0 | 0.0 | 0.00 | 0.00 | 0.00 | 89 | 1010.5 |
| 20260905125025 | 63 | 0 | 0.0 | 7.0 | 0.00 | 0.00 | 0.00 | 89 | 1010.6 |
| 20260905124549 | 63 | 0 | 0.0 | 7.0 | 0.00 | 0.00 | 0.00 | 88 | 1010.6 |
| 20260905124024 | 63 | 0 | 0.0 | 1.0 | 0.00 | 0.00 | 0.00 | 87 | 1010.6 |
| 20260905123527 | 63 | 0 | 0.0 | 0.0 | 0.00 | 0.00 | 0.00 | 85 | 1010.4 |
| 20260905123049 | 63 | 0 | 0.0 | 4.0 | 0.00 | 0.00 | 0.00 | 86 | 1010.3 |
| 20260905122529 | 63 | 0 | 0.0 | 4.0 | 0.00 | 0.00 | 0.00 | 87 | 1010.3 |
| 20260905122028 | 63 | 0 | 0.0 | 2.0 | 0.00 | 0.00 | 0.00 | 86 | 1010.2 |
| 20260905121545 | 63 | 0 | 0.0 | 2.0 | 0.00 | 0.00 | 0.00 | 86 | 1010.1 |
| 20260905121030 | 63 | 0 | 0.0 | 2.0 | 0.00 | 0.00 | 0.00 | 87 | 1010.0 |
| 20260905120526 | 63 | 0 | 0.0 | 0.0 | 0.00 | 0.00 | 0.00 | 87 | 1010.0 |
| 20260905120049 | 62 | 0 | 0.0 | 1.0 | 0.00 | 0.00 | 0.00 | 88 | 1010.0 |
| 20260905115528 | 62 | 0 | 0.0 | 6.0 | 0.00 | 0.00 | 0.00 | 87 | 1010.0 |
| 20260905115025 | 62 | 0 | 0.0 | 6.0 | 0.00 | 0.00 | 0.00 | 87 | 1009.9 |
| 20260905114547 | 62 | 0 | 0.0 | 1.0 | 0.00 | 0.00 | 0.00 | 87 | 1010.0 |
| 20260905114025 | 62 | 0 | 0.0 | 0.0 | 0.00 | 0.00 | 0.00 | 88 | 1009.9 |
| 20260905113525 | 62 | 0 | 0.0 | 0.0 | 0.00 | 0.00 | 0.00 | 87 | 1009.9 |
| 20260905113043 | 62 | 0 | 0.0 | 4.0 | 0.00 | 0.00 | 0.00 | 88 | 1009.9 |
| 20260905112525 | 62 | 0 | 0.0 | 4.0 | 0.00 | 0.00 | 0.00 | 88 | 1009.9 |
| 20260905112027 | 61 | 0 | 0.0 | 0.0 | 0.00 | 0.00 | 0.00 | 89 | 1009.7 |
| 20260905111553 | 61 | 0 | 0.0 | 1.0 | 0.00 | 0.00 | 0.00 | 89 | 1009.6 |
| 20260905111028 | 61 | 0 | 0.0 | 1.0 | 0.00 | 0.00 | 0.00 | 89 | 1009.5 |
| 20260905110527 | 61 | 0 | 0.0 | 0.0 | 0.00 | 0.00 | 0.00 | 89 | 1009.5 |
| 20260905110048 | 61 | 0 | 0.0 | 0.0 | 0.00 | 0.00 | 0.00 | 89 | 1009.5 |
| 20260905105525 | 61 | 0 | 0.0 | 1.0 | 0.00 | 0.00 | 0.00 | 89 | 1009.3 |
| 20260905105025 | 61 | 0 | 0.0 | 1.0 | 0.00 | 0.00 | 0.00 | 90 | 1009.3 |
| 20260905104601 | 61 | 0 | 0.0 | 1.0 | 0.00 | 0.00 | 0.00 | 90 | 1009.3 |
| 20260905104026 | 60 | 0 | 0.0 | 0.0 | 0.00 | 0.00 | 0.00 | 90 | 1009.3 |
| 20260905103525 | 60 | 0 | 0.0 | 0.0 | 0.00 | 0.00 | 0.00 | 91 | 1009.2 |
| 20260905103042 | 60 | 0 | 0.0 | 0.0 | 0.00 | 0.00 | 0.00 | 92 | 1009.1 |
| 20260905102525 | 60 | 0 | 0.0 | 0.0 | 0.00 | 0.00 | 0.00 | 92 | 1009.2 |
| 20260905102027 | 59 | 0 | 0.0 | 0.0 | 0.00 | 0.00 | 0.00 | 93 | 1009.1 |
| 20260905101550 | 59 | 0 | 0.0 | 0.0 | 0.00 | 0.00 | 0.00 | 93 | 1009.2 |
| 20260905101027 | 59 | 0 | 0.0 | 0.0 | 0.00 | 0.00 | 0.00 | 94 | 1009.2 |
| 20260905100526 | 59 | 0 | 0.0 | 0.0 | 0.00 | 0.00 | 0.00 | 94 | 1009.2 |
| 20260905100046 | 59 | 0 | 0.0 | 0.0 | 0.00 | 0.00 | 0.00 | 94 | 1009.2 |
| 20260905095527 | 59 | 0 | 0.0 | 0.0 | 0.00 | 0.01 | 0.00 | 94 | 1009.1 |
| 20260905095028 | 59 | 0 | 0.0 | 0.0 | 0.00 | 0.01 | 0.00 | 94 | 1009.1 |
| 20260905094543 | 58 | 0 | 0.0 | 0.0 | 0.00 | 0.01 | 0.00 | 94 | 1009.0 |
| 20260905094029 | 58 | 0 | 0.0 | 0.0 | 0.00 | 0.01 | 0.00 | 94 | 1008.9 |
| 20260905093525 | 58 | 0 | 0.0 | 0.0 | 0.00 | 0.01 | 0.00 | 95 | 1008.9 |
| 20260905093042 | 58 | 0 | 0.0 | 0.0 | 0.00 | 0.01 | 0.00 | 95 | 1008.9 |
| 20260905092524 | 58 | 0 | 0.0 | 0.0 | 0.00 | 0.01 | 0.00 | 95 | 1008.9 |
| 20260905092031 | 58 | 0 | 0.0 | 0.0 | 0.00 | 0.01 | 0.00 | 95 | 1008.9 |
| 20260905091550 | 58 | 0 | 0.0 | 0.0 | 0.00 | 0.01 | 0.00 | 95 | 1008.9 |
| 20260905091025 | 58 | 0 | 0.0 | 0.0 | 0.00 | 0.01 | 0.00 | 94 | 1008.9 |
| 20260905090527 | 58 | 0 | 0.0 | 0.0 | 0.00 | 0.01 | 0.00 | 94 | 1008.9 |
| 20260905090111 | 58 | 0 | 0.0 | 0.0 | 0.00 | 0.01 | 0.00 | 94 | 1008.9 |
| 20260905085524 | 58 | 0 | 0.0 | 0.0 | 0.00 | 0.01 | 0.00 | 94 | 1008.8 |
| 20260905085024 | 58 | 0 | 0.0 | 0.0 | 0.00 | 0.01 | 0.00 | 94 | 1008.8 |
| 20260905084543 | 57 | 0 | 0.0 | 0.0 | 0.00 | 0.01 | 0.00 | 94 | 1008.8 |
| 20260905084025 | 57 | 0 | 0.0 | 0.0 | 0.00 | 0.01 | 0.00 | 94 | 1008.7 |
| 20260905083525 | 57 | 0 | 0.0 | 0.0 | 0.00 | 0.01 | 0.00 | 94 | 1008.7 |
| 20260905083050 | 57 | 0 | 0.0 | 0.0 | 0.00 | 0.01 | 0.00 | 94 | 1008.7 |
| 20260905082533 | 57 | 0 | 0.0 | 0.0 | 0.00 | 0.01 | 0.00 | 94 | 1008.7 |
| 20260905082025 | 57 | 0 | 0.0 | 0.0 | 0.00 | 0.01 | 0.00 | 94 | 1008.7 |
| 20260905081547 | 57 | 0 | 0.0 | 0.0 | 0.00 | 0.01 | 0.00 | 94 | 1008.8 |
| 20260905081027 | 58 | 0 | 0.0 | 0.0 | 0.00 | 0.01 | 0.00 | 94 | 1008.7 |
| 20260905080524 | 58 | 0 | 0.0 | 0.0 | 0.00 | 0.01 | 0.00 | 93 | 1008.6 |
| 20260905080050 | 58 | 0 | 0.0 | 0.0 | 0.00 | 0.01 | 0.00 | 93 | 1008.6 |
| 20260905075525 | 58 | 0 | 0.0 | 0.0 | 0.00 | 0.01 | 0.00 | 93 | 1008.5 |
| 20260905075026 | 58 | 0 | 0.0 | 0.0 | 0.00 | 0.01 | 0.00 | 93 | 1008.5 |
| 20260905074549 | 58 | 0 | 0.0 | 0.0 | 0.00 | 0.01 | 0.00 | 93 | 1008.6 |
| 20260905074025 | 58 | 0 | 0.0 | 0.0 | 0.00 | 0.01 | 0.00 | 93 | 1008.6 |
| 20260905073528 | 58 | 0 | 0.0 | 0.0 | 0.00 | 0.01 | 0.00 | 93 | 1008.7 |
| 20260905073047 | 58 | 0 | 0.0 | 0.0 | 0.00 | 0.01 | 0.00 | 93 | 1008.6 |
| 20260905072524 | 59 | 0 | 0.0 | 0.0 | 0.00 | 0.01 | 0.00 | 93 | 1008.6 |
| 20260905072026 | 59 | 0 | 0.0 | 0.0 | 0.00 | 0.01 | 0.00 | 93 | 1008.6 |
| 20260905071552 | 59 | 0 | 0.0 | 0.0 | 0.00 | 0.01 | 0.00 | 93 | 1008.6 |
| 20260905071024 | 59 | 0 | 0.0 | 0.0 | 0.00 | 0.01 | 0.00 | 93 | 1008.5 |
| 20260905070523 | 59 | 0 | 0.0 | 0.0 | 0.00 | 0.01 | 0.00 | 93 | 1008.5 |
| 20260905070047 | 59 | 0 | 0.0 | 0.0 | 0.00 | 0.01 | 0.00 | 93 | 1008.5 |
| 20260905065527 | 59 | 0 | 0.0 | 0.0 | 0.00 | 0.01 | 0.00 | 93 | 1008.5 |
| 20260905065027 | 59 | 0 | 0.0 | 0.0 | 0.00 | 0.01 | 0.00 | 93 | 1008.4 |
| 20260905064550 | 59 | 0 | 0.0 | 0.0 | 0.00 | 0.01 | 0.00 | 93 | 1008.4 |
| 20260905064027 | 59 | 0 | 0.0 | 0.0 | 0.00 | 0.01 | 0.00 | 92 | 1008.3 |
| 20260905063524 | 59 | 0 | 0.0 | 0.0 | 0.00 | 0.01 | 0.00 | 92 | 1008.3 |
| 20260905063045 | 59 | 0 | 0.0 | 0.0 | 0.00 | 0.01 | 0.00 | 92 | 1008.3 |
| 20260905062525 | 60 | 0 | 0.0 | 0.0 | 0.00 | 0.01 | 0.00 | 92 | 1008.2 |
| 20260905062024 | 60 | 0 | 0.0 | 0.0 | 0.00 | 0.01 | 0.00 | 92 | 1008.1 |
| 20260905061545 | 60 | 0 | 0.0 | 0.0 | 0.00 | 0.01 | 0.00 | 92 | 1008.2 |
| 20260905061023 | 60 | 0 | 0.0 | 0.0 | 0.00 | 0.01 | 0.00 | 92 | 1008.3 |
| 20260905060524 | 60 | 0 | 0.0 | 0.0 | 0.00 | 0.01 | 0.00 | 92 | 1008.4 |
| 20260905060050 | 60 | 0 | 0.0 | 0.0 | 0.00 | 0.01 | 0.00 | 91 | 1008.4 |
| 20260905055527 | 60 | 0 | 0.0 | 0.0 | 0.00 | 0.01 | 0.00 | 91 | 1008.5 |
| 20260905055029 | 61 | 0 | 0.0 | 0.0 | 0.00 | 0.01 | 0.00 | 91 | 1008.5 |
| 20260905054548 | 61 | 0 | 0.0 | 0.0 | 0.00 | 0.01 | 0.00 | 91 | 1008.6 |
| 20260905054027 | 61 | 0 | 0.0 | 0.0 | 0.00 | 0.01 | 0.00 | 91 | 1008.6 |
| 20260905053527 | 61 | 0 | 0.0 | 0.0 | 0.00 | 0.01 | 0.00 | 91 | 1008.6 |
| 20260905053044 | 61 | 0 | 0.0 | 0.0 | 0.00 | 0.01 | 0.00 | 90 | 1008.5 |
| 20260905052526 | 61 | 0 | 0.0 | 0.0 | 0.00 | 0.01 | 0.00 | 90 | 1008.5 |
| 20260905052027 | 61 | 0 | 0.0 | 0.0 | 0.00 | 0.01 | 0.00 | 90 | 1008.5 |
| 20260905051544 | 61 | 0 | 0.0 | 0.0 | 0.00 | 0.01 | 0.00 | 90 | 1008.6 |
| 20260905051024 | 62 | 0 | 0.0 | 0.0 | 0.00 | 0.01 | 0.00 | 90 | 1008.6 |
| 20260905050524 | 62 | 0 | 0.0 | 0.0 | 0.00 | 0.01 | 0.00 | 89 | 1008.5 |
| 20260905050050 | 62 | 0 | 0.0 | 0.0 | 0.00 | 0.01 | 0.00 | 89 | 1008.5 |
| 20260905045532 | 62 | 0 | 0.0 | 0.0 | 0.00 | 0.01 | 0.00 | 89 | 1008.6 |
| 20260905045024 | 62 | 0 | 0.0 | 0.0 | 0.00 | 0.01 | 0.00 | 88 | 1008.5 |
| 20260905044550 | 63 | 0 | 0.0 | 0.0 | 0.00 | 0.01 | 0.00 | 88 | 1008.4 |
| 20260905044026 | 63 | 0 | 0.0 | 0.0 | 0.00 | 0.01 | 0.00 | 88 | 1008.5 |
| 20260905043528 | 63 | 0 | 0.0 | 0.0 | 0.00 | 0.01 | 0.00 | 88 | 1008.6 |
| 20260905043044 | 63 | 0 | 0.0 | 0.0 | 0.00 | 0.01 | 0.00 | 87 | 1008.6 |
| 20260905042529 | 63 | 0 | 0.0 | 0.0 | 0.00 | 0.01 | 0.00 | 87 | 1008.6 |
| 20260905042025 | 63 | 0 | 0.0 | 0.0 | 0.00 | 0.01 | 0.00 | 87 | 1008.6 |
| 20260905041550 | 63 | 0 | 0.0 | 0.0 | 0.00 | 0.01 | 0.00 | 87 | 1008.6 |
| 20260905041023 | 64 | 0 | 0.0 | 0.0 | 0.00 | 0.01 | 0.00 | 86 | 1008.6 |
| 20260905040524 | 64 | 0 | 0.0 | 0.0 | 0.00 | 0.01 | 0.00 | 87 | 1008.5 |
| 20260905040050 | 64 | 0 | 0.0 | 0.0 | 0.00 | 0.01 | 0.00 | 86 | 1008.5 |
| 20260905035526 | 64 | 0 | 0.0 | 0.0 | 0.00 | 0.01 | 0.01 | 87 | 1008.4 |
| 20260905035027 | 64 | 0 | 0.0 | 0.0 | 0.00 | 0.01 | 0.01 | 87 | 1008.5 |
| 20260905034550 | 64 | 0 | 0.0 | 0.0 | 0.00 | 0.01 | 0.01 | 86 | 1008.5 |
| 20260905034028 | 64 | 0 | 0.0 | 0.0 | 0.00 | 0.01 | 0.01 | 87 | 1008.6 |
| 20260905033530 | 64 | 0 | 0.0 | 0.0 | 0.00 | 0.01 | 0.01 | 86 | 1008.6 |
| 20260905033047 | 64 | 0 | 0.0 | 0.0 | 0.00 | 0.01 | 0.01 | 87 | 1008.6 |
| 20260905032532 | 64 | 0 | 0.0 | 0.0 | 0.00 | 0.01 | 0.01 | 87 | 1008.6 |
| 20260905032031 | 64 | 0 | 0.0 | 0.0 | 0.00 | 0.01 | 0.01 | 87 | 1008.5 |
| 20260905031548 | 64 | 0 | 0.0 | 0.0 | 0.00 | 0.01 | 0.01 | 87 | 1008.5 |
| 20260905031033 | 64 | 0 | 0.0 | 0.0 | 0.00 | 0.01 | 0.01 | 87 | 1008.6 |
| 20260905030527 | 64 | 0 | 0.0 | 0.0 | 0.00 | 0.01 | 0.01 | 87 | 1008.5 |
| 20260905030046 | 64 | 0 | 0.0 | 0.0 | 0.00 | 0.01 | 0.01 | 87 | 1008.5 |
| 20260905025524 | 64 | 0 | 0.0 | 0.0 | 0.00 | 0.01 | 0.01 | 85 | 1008.6 |
| 20260905025030 | 64 | 0 | 0.0 | 0.0 | 0.00 | 0.01 | 0.01 | 85 | 1008.6 |
| 20260905024542 | 64 | 0 | 0.0 | 0.0 | 0.00 | 0.01 | 0.01 | 85 | 1008.5 |
| 20260905024025 | 64 | 0 | 0.0 | 0.0 | 0.00 | 0.01 | 0.01 | 85 | 1008.6 |
| 20260905023524 | 64 | 0 | 0.0 | 0.0 | 0.00 | 0.01 | 0.01 | 84 | 1008.6 |
| 20260905023045 | 64 | 0 | 0.0 | 0.0 | 0.00 | 0.01 | 0.01 | 84 | 1008.6 |
| 20260905022526 | 64 | 0 | 0.0 | 0.0 | 0.00 | 0.01 | 0.01 | 84 | 1008.8 |
| 20260905022028 | 65 | 0 | 0.0 | 0.0 | 0.00 | 0.01 | 0.01 | 83 | 1008.7 |
| 20260905021549 | 65 | 0 | 0.0 | 0.0 | 0.00 | 0.01 | 0.01 | 83 | 1008.7 |
| 20260905021025 | 65 | 0 | 0.0 | 0.0 | 0.00 | 0.01 | 0.01 | 83 | 1008.8 |
| 20260905020526 | 65 | 0 | 0.0 | 0.0 | 0.00 | 0.01 | 0.01 | 82 | 1008.7 |
| 20260905020043 | 66 | 0 | 0.0 | 0.0 | 0.00 | 0.01 | 0.01 | 82 | 1008.7 |
| 20260905015528 | 66 | 0 | 0.0 | 0.0 | 0.00 | 0.02 | 0.01 | 82 | 1008.7 |
| 20260905015024 | 66 | 0 | 0.0 | 0.0 | 0.00 | 0.02 | 0.01 | 81 | 1008.7 |
| 20260905014552 | 66 | 0 | 0.0 | 0.0 | 0.00 | 0.02 | 0.01 | 81 | 1008.6 |
| 20260905014024 | 67 | 0 | 0.0 | 0.0 | 0.00 | 0.02 | 0.01 | 81 | 1008.6 |
| 20260905013526 | 67 | 0 | 0.0 | 0.0 | 0.00 | 0.02 | 0.01 | 80 | 1008.8 |
| 20260905013107 | 67 | 0 | 0.0 | 0.0 | 0.00 | 0.02 | 0.01 | 80 | 1008.8 |
| 20260905012525 | 67 | 0 | 0.0 | 0.0 | 0.00 | 0.02 | 0.01 | 80 | 1008.8 |
| 20260905012024 | 67 | 0 | 0.0 | 0.0 | 0.00 | 0.02 | 0.01 | 79 | 1008.8 |
| 20260905011543 | 67 | 0 | 0.0 | 0.0 | 0.00 | 0.02 | 0.01 | 79 | 1008.9 |
| 20260905011029 | 68 | 0 | 0.0 | 0.0 | 0.00 | 0.02 | 0.01 | 80 | 1008.9 |
| 20260905010524 | 68 | 0 | 0.0 | 0.0 | 0.00 | 0.02 | 0.01 | 82 | 1008.9 |
| 20260905010043 | 68 | 0 | 0.0 | 0.0 | 0.00 | 0.02 | 0.01 | 82 | 1008.8 |
| 20260905005525 | 68 | 0 | 0.0 | 0.0 | 0.00 | 0.02 | 0.01 | 79 | 1008.9 |
| 20260905005024 | 68 | 0 | 0.0 | 0.0 | 0.00 | 0.02 | 0.01 | 78 | 1008.8 |
| 20260905004627 | 68 | 0 | 0.0 | 0.0 | 0.00 | 0.02 | 0.01 | 78 | 1008.8 |
| 20260905004027 | 68 | 0 | 0.0 | 0.0 | 0.00 | 0.02 | 0.01 | 79 | 1008.8 |
| 20260905003530 | 68 | 0 | 0.0 | 0.0 | 0.00 | 0.02 | 0.01 | 82 | 1008.8 |
| 20260905003047 | 68 | 0 | 0.0 | 0.0 | 0.00 | 0.02 | 0.01 | 82 | 1008.8 |
| 20260905002524 | 69 | 0 | 0.0 | 0.0 | 0.00 | 0.02 | 0.01 | 81 | 1008.8 |
| 20260905002031 | 69 | 0 | 0.0 | 0.0 | 0.00 | 0.02 | 0.01 | 79 | 1008.7 |
| 20260905001554 | 69 | 0 | 0.0 | 0.0 | 0.00 | 0.02 | 0.01 | 79 | 1008.7 |
| 20260905001026 | 69 | 0 | 0.0 | 0.0 | 0.00 | 0.02 | 0.01 | 79 | 1008.7 |
| 20260905000526 | 69 | 0 | 0.0 | 0.0 | 0.00 | 0.02 | 0.01 | 79 | 1008.7 |
| 20260905000053 | 69 | 0 | 0.0 | 0.0 | 0.00 | 0.02 | 0.01 | 80 | 1008.6 |
| 20260904235524 | 69 | 0 | 0.0 | 3.0 | 0.00 | 0.02 | 0.01 | 80 | 1008.6 |
| 20260904235023 | 69 | 0 | 0.0 | 3.0 | 0.00 | 0.02 | 0.01 | 81 | 1008.6 |
| 20260904234550 | 69 | 0 | 0.0 | 0.0 | 0.00 | 0.02 | 0.01 | 79 | 1008.4 |
| 20260904234026 | 70 | 0 | 0.0 | 0.0 | 0.00 | 0.02 | 0.01 | 80 | 1008.3 |
| 20260904233528 | 70 | 0 | 0.0 | 0.0 | 0.00 | 0.02 | 0.01 | 81 | 1008.3 |
| 20260904233049 | 70 | 0 | 0.0 | 0.0 | 0.00 | 0.02 | 0.01 | 81 | 1008.3 |
| 20260904232526 | 70 | 0 | 0.0 | 0.0 | 0.00 | 0.02 | 0.01 | 81 | 1008.3 |
| 20260904232027 | 71 | 0 | 0.0 | 0.0 | 0.00 | 0.02 | 0.01 | 82 | 1008.2 |
| 20260904231546 | 71 | 0 | 0.0 | 0.0 | 0.00 | 0.02 | 0.01 | 82 | 1008.2 |
| 20260904231024 | 71 | 0 | 0.0 | 0.0 | 0.00 | 0.02 | 0.01 | 79 | 1008.3 |
| 20260904230525 | 71 | 0 | 0.0 | 0.0 | 0.00 | 0.02 | 0.01 | 77 | 1008.4 |
| 20260904230052 | 71 | 0 | 0.0 | 0.0 | 0.00 | 0.02 | 0.01 | 77 | 1008.3 |
| 20260904225525 | 72 | 0 | 0.0 | 0.0 | 0.00 | 0.02 | 0.01 | 78 | 1008.3 |
| 20260904225024 | 72 | 0 | 0.0 | 0.0 | 0.00 | 0.02 | 0.01 | 80 | 1008.2 |
| 20260904224550 | 72 | 0 | 0.0 | 0.0 | 0.00 | 0.02 | 0.01 | 80 | 1008.2 |
| 20260904224024 | 72 | 0 | 0.0 | 0.0 | 0.00 | 0.02 | 0.01 | 76 | 1008.1 |
| 20260904223528 | 72 | 0 | 0.0 | 0.0 | 0.00 | 0.02 | 0.01 | 73 | 1008.1 |
| 20260904223046 | 72 | 0 | 0.0 | 0.0 | 0.00 | 0.02 | 0.01 | 73 | 1008.0 |
| 20260904222527 | 73 | 0 | 0.0 | 0.0 | 0.00 | 0.02 | 0.01 | 74 | 1008.1 |
| 20260904222024 | 73 | 0 | 0.0 | 0.0 | 0.00 | 0.02 | 0.01 | 73 | 1008.0 |
| 20260904221555 | 73 | 0 | 0.0 | 0.0 | 0.00 | 0.02 | 0.01 | 73 | 1007.9 |
| 20260904221024 | 73 | 0 | 0.0 | 0.0 | 0.00 | 0.02 | 0.01 | 72 | 1008.0 |
| 20260904220524 | 73 | 0 | 0.0 | 0.0 | 0.00 | 0.02 | 0.01 | 72 | 1008.0 |
| 20260904220052 | 74 | 0 | 0.0 | 0.0 | 0.00 | 0.02 | 0.01 | 73 | 1008.0 |
| 20260904215523 | 74 | 0 | 0.0 | 0.0 | 0.00 | 0.02 | 0.01 | 72 | 1007.9 |
| 20260904215024 | 74 | 0 | 0.0 | 0.0 | 0.00 | 0.02 | 0.01 | 73 | 1007.9 |
| 20260904214557 | 74 | 0 | 0.0 | 0.0 | 0.00 | 0.02 | 0.01 | 69 | 1007.7 |
| 20260904214027 | 74 | 0 | 0.0 | 0.0 | 0.00 | 0.02 | 0.01 | 68 | 1007.8 |
| 20260904213530 | 74 | 0 | 0.0 | 0.0 | 0.00 | 0.02 | 0.01 | 69 | 1007.8 |
| 20260904213044 | 74 | 0 | 0.0 | 0.0 | 0.00 | 0.02 | 0.01 | 69 | 1007.8 |
| 20260904212525 | 74 | 0 | 0.0 | 0.0 | 0.00 | 0.02 | 0.01 | 67 | 1007.8 |
| 20260904212024 | 75 | 0 | 0.0 | 0.0 | 0.00 | 0.02 | 0.01 | 68 | 1007.8 |
| 20260904211553 | 75 | 0 | 0.0 | 0.0 | 0.00 | 0.02 | 0.01 | 69 | 1007.9 |
| 20260904211026 | 75 | 0 | 0.0 | 0.0 | 0.00 | 0.02 | 0.01 | 70 | 1007.9 |
| 20260904210528 | 75 | 0 | 0.0 | 0.0 | 0.00 | 0.02 | 0.01 | 68 | 1007.8 |
| 20260904210049 | 75 | 0 | 0.0 | 0.0 | 0.00 | 0.02 | 0.01 | 65 | 1007.8 |
| 20260904205527 | 75 | 0 | 0.0 | 0.0 | 0.00 | 0.02 | 0.01 | 71 | 1007.7 |
| 20260904205025 | 76 | 0 | 0.0 | 0.0 | 0.00 | 0.02 | 0.01 | 68 | 1007.7 |
| 20260904204548 | 77 | 0 | 0.0 | 0.0 | 0.00 | 0.02 | 0.01 | 70 | 1007.6 |
| 20260904204030 | 77 | 0 | 0.0 | 0.0 | 0.00 | 0.02 | 0.01 | 64 | 1007.7 |
| 20260904203525 | 76 | 0 | 0.0 | 0.0 | 0.00 | 0.02 | 0.01 | 70 | 1007.8 |
| 20260904203053 | 75 | 0 | 0.0 | 0.0 | 0.00 | 0.02 | 0.01 | 71 | 1007.7 |
| 20260904202527 | 75 | 0 | 0.0 | 0.0 | 0.00 | 0.02 | 0.01 | 70 | 1007.7 |
| 20260904202027 | 76 | 0 | 0.0 | 0.0 | 0.00 | 0.02 | 0.01 | 71 | 1007.8 |
| 20260904201547 | 76 | 0 | 0.0 | 0.0 | 0.00 | 0.02 | 0.01 | 67 | 1007.8 |
| 20260904201025 | 76 | 0 | 0.0 | 0.0 | 0.00 | 0.02 | 0.01 | 70 | 1007.8 |
| 20260904200530 | 76 | 0 | 0.0 | 0.0 | 0.00 | 0.02 | 0.01 | 71 | 1007.8 |
| 20260904200049 | 75 | 0 | 0.0 | 0.0 | 0.00 | 0.02 | 0.01 | 70 | 1007.8 |
| 20260904195527 | 76 | 0 | 0.0 | 0.0 | 0.00 | 0.02 | 0.01 | 67 | 1007.8 |
| 20260904195024 | 76 | 0 | 0.0 | 0.0 | 0.00 | 0.02 | 0.01 | 69 | 1007.8 |
| 20260904194555 | 76 | 0 | 0.0 | 0.0 | 0.00 | 0.02 | 0.01 | 70 | 1007.8 |
| 20260904194025 | 76 | 0 | 0.0 | 0.0 | 0.00 | 0.02 | 0.01 | 69 | 1007.8 |
| 20260904193525 | 76 | 0 | 0.0 | 0.0 | 0.00 | 0.02 | 0.01 | 68 | 1007.8 |
| 20260904193051 | 76 | 0 | 0.0 | 0.0 | 0.00 | 0.02 | 0.01 | 64 | 1007.9 |
| 20260904192525 | 76 | 0 | 0.0 | 0.0 | 0.00 | 0.02 | 0.01 | 70 | 1007.9 |
| 20260904192028 | 77 | 0 | 0.0 | 0.0 | 0.00 | 0.02 | 0.01 | 71 | 1007.9 |
| 20260904191551 | 77 | 0 | 0.0 | 0.0 | 0.00 | 0.02 | 0.01 | 70 | 1007.9 |
| 20260904191029 | 77 | 0 | 0.0 | 0.0 | 0.00 | 0.02 | 0.01 | 72 | 1007.9 |
| 20260904190531 | 77 | 0 | 0.0 | 0.0 | 0.00 | 0.02 | 0.01 | 73 | 1007.9 |
| 20260904190048 | 77 | 0 | 0.0 | 0.0 | 0.00 | 0.02 | 0.01 | 70 | 1007.9 |
| 20260904185524 | 76 | 0 | 0.0 | 0.0 | 0.00 | 0.02 | 0.01 | 73 | 1008.0 |
| 20260904185025 | 75 | 0 | 0.0 | 0.0 | 0.00 | 0.02 | 0.01 | 73 | 1008.0 |
| 20260904184611 | 75 | 0 | 0.0 | 0.0 | 0.00 | 0.02 | 0.01 | 75 | 1008.0 |
| 20260904184024 | 74 | 0 | 0.0 | 0.0 | 0.00 | 0.02 | 0.01 | 74 | 1007.9 |
| 20260904183524 | 74 | 0 | 0.0 | 0.0 | 0.00 | 0.02 | 0.01 | 73 | 1007.9 |
| 20260904183050 | 74 | 0 | 0.0 | 0.0 | 0.00 | 0.02 | 0.01 | 78 | 1008.0 |
| 20260904182526 | 74 | 0 | 0.0 | 0.0 | 0.00 | 0.02 | 0.01 | 73 | 1008.0 |
| 20260904182031 | 74 | 0 | 0.0 | 0.0 | 0.00 | 0.02 | 0.01 | 81 | 1008.1 |
| 20260904181606 | 74 | 0 | 0.0 | 0.0 | 0.00 | 0.02 | 0.01 | 82 | 1008.3 |
| 20260904181025 | 74 | 0 | 0.0 | 0.0 | 0.00 | 0.02 | 0.01 | 81 | 1008.1 |
| 20260904180531 | 74 | 0 | 0.0 | 0.0 | 0.00 | 0.02 | 0.01 | 79 | 1008.1 |
| 20260904180056 | 75 | 0 | 0.0 | 0.0 | 0.00 | 0.02 | 0.01 | 77 | 1008.2 |
| 20260904175525 | 75 | 0 | 0.0 | 0.0 | 0.00 | 0.02 | 0.01 | 77 | 1008.1 |
| 20260904175025 | 75 | 0 | 0.0 | 0.0 | 0.00 | 0.02 | 0.01 | 80 | 1008.1 |
| 20260904174552 | 75 | 0 | 0.0 | 0.0 | 0.00 | 0.02 | 0.01 | 76 | 1008.3 |
| 20260904174025 | 76 | 0 | 0.0 | 0.0 | 0.00 | 0.02 | 0.01 | 74 | 1008.2 |
| 20260904173527 | 76 | 0 | 0.0 | 0.0 | 0.00 | 0.02 | 0.01 | 72 | 1008.4 |
| 20260904173048 | 75 | 0 | 0.0 | 0.0 | 0.00 | 0.02 | 0.01 | 72 | 1008.4 |
| 20260904172525 | 75 | 0 | 0.0 | 0.0 | 0.00 | 0.02 | 0.01 | 74 | 1008.5 |
| 20260904172024 | 74 | 0 | 0.0 | 0.0 | 0.00 | 0.02 | 0.01 | 82 | 1008.5 |
| 20260904171610 | 74 | 0 | 0.0 | 0.0 | 0.00 | 0.02 | 0.01 | 74 | 1008.6 |
| 20260904171024 | 74 | 0 | 0.0 | 0.0 | 0.00 | 0.02 | 0.01 | 79 | 1008.7 |
| 20260904170525 | 74 | 0 | 0.0 | 0.0 | 0.00 | 0.02 | 0.01 | 79 | 1008.6 |
| 20260904170044 | 74 | 0 | 0.0 | 0.0 | 0.00 | 0.02 | 0.01 | 76 | 1008.7 |
| 20260904165524 | 74 | 0 | 0.0 | 0.0 | 0.00 | 0.02 | 0.01 | 79 | 1008.7 |
| 20260904165025 | 74 | 0 | 0.0 | 0.0 | 0.00 | 0.02 | 0.01 | 82 | 1008.8 |
| 20260904164600 | 74 | 0 | 0.0 | 0.0 | 0.00 | 0.02 | 0.01 | 81 | 1008.8 |
| 20260904164027 | 74 | 0 | 0.0 | 0.0 | 0.00 | 0.02 | 0.01 | 81 | 1008.9 |
| 20260904163527 | 74 | 0 | 0.0 | 0.0 | 0.00 | 0.02 | 0.01 | 78 | 1008.9 |
| 20260904163046 | 74 | 0 | 0.0 | 0.0 | 0.00 | 0.02 | 0.01 | 74 | 1008.9 |
| 20260904162524 | 74 | 0 | 0.0 | 0.0 | 0.00 | 0.02 | 0.01 | 81 | 1008.9 |
| 20260904162025 | 73 | 0 | 0.0 | 0.0 | 0.00 | 0.02 | 0.01 | 81 | 1009.0 |
| 20260904161554 | 74 | 0 | 0.0 | 0.0 | 0.00 | 0.02 | 0.01 | 81 | 1009.1 |
| 20260904161025 | 73 | 0 | 0.0 | 0.0 | 0.00 | 0.02 | 0.01 | 80 | 1009.2 |
| 20260904160524 | 73 | 0 | 0.0 | 0.0 | 0.00 | 0.02 | 0.01 | 77 | 1009.1 |
| 20260904160052 | 73 | 0 | 0.0 | 0.0 | 0.00 | 0.02 | 0.01 | 82 | 1009.1 |
| 20260904155529 | 73 | 0 | 0.0 | 0.0 | 0.00 | 0.02 | 0.01 | 80 | 1009.3 |
| 20260904155028 | 73 | 0 | 0.0 | 0.0 | 0.00 | 0.02 | 0.01 | 77 | 1009.3 |
| 20260904154552 | 73 | 0 | 0.0 | 0.0 | 0.00 | 0.02 | 0.01 | 83 | 1009.4 |
| 20260904154028 | 72 | 0 | 0.0 | 0.0 | 0.00 | 0.02 | 0.01 | 82 | 1009.4 |
| 20260904153527 | 72 | 0 | 0.0 | 0.0 | 0.00 | 0.02 | 0.01 | 80 | 1009.4 |
| 20260904153055 | 72 | 0 | 0.0 | 0.0 | 0.00 | 0.02 | 0.01 | 83 | 1009.5 |
| 20260904152524 | 71 | 0 | 0.0 | 0.0 | 0.00 | 0.02 | 0.01 | 80 | 1009.5 |
| 20260904152025 | 71 | 0 | 0.0 | 0.0 | 0.00 | 0.02 | 0.01 | 83 | 1009.6 |
| 20260904151541 | 71 | 0 | 0.0 | 0.0 | 0.00 | 0.02 | 0.01 | 85 | 1009.6 |
| 20260904151027 | 70 | 0 | 0.0 | 0.0 | 0.00 | 0.02 | 0.01 | 87 | 1009.7 |